Hourly Weather Roundup
Issued by NWS Central Illinois

Home | Current Version | Previous Version | Text Only | Print | Product List | Glossary On
Versions: 1 2 3 4 5 6 7 8 9 10 11 12 13 14 15 16 17 18 19 20 21 22 23 24 25 26 27 28 29 30 31 32 33 34 35 36 37 38 39 40 41 42 43 44 45 46 47 48 49 50
000
NZUS43 KILX 052110
HWRILX

AREA WEATHER ROUNDUP
NATIONAL WEATHER SERVICE, LINCOLN IL
400 PM CDT TUE MAY 05 2015


CITY           SKY/WX    TMP DP  RH WIND       PRES   REMARKS
BLOOMINGTON    MOSUNNY   80  62  54 W13       30.13F HX  81
CHAMPAIGN      MOSUNNY   87  49  26 SW14      30.12F HX  84
DANVILLE       MOSUNNY   85  53  33 S13G20    30.10F HAZE    HX  83
DECATUR        PTSUNNY   83  53  35 S15       30.11F HX  82
EFFINGHAM      MOSUNNY   83  48  29 S12       30.16F HX  81
FLORA          MOSUNNY   83  52  33 SW7       30.15F HX  82
GALESBURG      PTSUNNY   78  65  64 N8        30.11F
JACKSONVILLE   PTSUNNY   88  51  28 S13G20    30.10F HX  85
LACON          CLOUDY    67  65  94 NE6       30.13S VSB 3/4
LAWRENCEVILLE  PTSUNNY   83  52  34 S15       30.15F HX  82
LITCHFIELD     MOSUNNY   83  51  32 SW8G18    30.13F HX  81
$$


CITY           SKY/WX    TMP DP  RH WIND       PRES   REMARKS
LINCOLN        PTSUNNY   83  62  49 N5        30.08F HX  83
MACOMB         MOSUNNY   80  60  48 SW6       30.12F HX  81
MATTOON        PTSUNNY   81  51  35 S9G17     30.13F HX  80
MT CARMEL AP   MOSUNNY   88  37  16 SW14      30.15F HX  84
OLNEY-NOBLE AP MOSUNNY   84  54  34 SW8       30.15F HX  83
PARIS          MOSUNNY   85  50  30 S16       30.15F HX  83
PEORIA         MOSUNNY   84  61  45 W8        30.11F HX  84
PONTIAC        CLOUDY    73  64  73 SE5       30.15S THUNDER
RANTOUL        PTSUNNY   84  59  42 SW13      30.11F HX  84
ROBINSON       PTSUNNY   87  51  28 SW8       30.16F HX  84
SPRINGFIELD    PTSUNNY   84  52  33 SW12      30.11F HX  82
TAYLORVILLE    PTSUNNY   86  50  28 SW10G16   30.11F HX  84
$$

...REGIONAL REPORTS...


CITY           SKY/WX    TMP DP  RH WIND       PRES   REMARKS
CHICAGO O`HARE CLOUDY    50  49  96 NE12      30.21F FOG
KANKAKEE       PTSUNNY   73  67  83 N10       30.14F
MOLINE         PTSUNNY   72  63  73 E12       30.13F HAZE
MOUNT VERNON   SUNNY    N/A N/A N/A S10       30.14F
PITTSFIELD     MOSUNNY   85  52  32 S8        30.11F HX  83
QUINCY         PTSUNNY   83  53  35 S10       30.09F HX  82
ROCKFORD       CLOUDY    56  51  84 E13       30.22F
$$


CITY           SKY/WX    TMP DP  RH WIND       PRES   REMARKS
BURLINGTON     PTSUNNY   81  62  52 VRB5      30.09F HX  82
CEDAR RAPIDS   CLOUDY    66  63  90 E12       30.11F FOG
DES MOINES     CLOUDY    72  64  76 E5        30.07F
KIRKSVILLE     PTSUNNY   80  61  52 VRB5      30.09F HX  81
OTTUMWA        PTSUNNY   79  60  52 SW8       30.08F HX  80
ST LOUIS       PTSUNNY   82  54  37 S14       30.13F HX  81
$$


CITY           SKY/WX    TMP DP  RH WIND       PRES   REMARKS
TERRE HAUTE    MOSUNNY   81  52  36 SW9       30.15F HX  80
EVANSVILLE     MOSUNNY   84  53  34 S8        30.17F HX  82
INDIANAPOLIS   MOSUNNY   80  52  37 SW15      30.15F HX  80
LAFAYETTE      MOSUNNY   82  51  34 SW10      30.12F HX  81
MADISON        LGT RAIN  55  50  83 E10       30.23F
MILWAUKEE      CLOUDY    48  44  86 E9        30.27F
$$




USA.gov is the U.S. government's official web portal to all federal, state and local government web resources and services.